Regional Weather Roundup
Issued by NWS

Home | Current Version | Previous Version | Graphics & Text | Print | Product List | Glossary Off
Versions: 1 2 3 4 5 6 7 8 9 10 11 12 13 14 15 16 17 18 19 20 21 22 23 24 25 26 27 28 29 30 31 32 33 34 35 36 37 38 39 40 41 42 43 44 45 46 47 48 49 50

000
ASUS43 KMKX 252200
RWRWI

WISCONSIN REGIONAL WEATHER ROUNDUP
NATIONAL WEATHER SERVICE MILWAUKEE/SULLIVAN WI
500 PM CDT SAT APR 25 2015

NOTE: "FAIR" INDICATES FEW OR NO CLOUDS BELOW 12,000 FEET WITH NO
SIGNIFICANT WEATHER AND/OR OBSTRUCTIONS TO VISIBILITY.

WIZ001-002-006>008-014>016-023>028-252300-
NORTHWEST WISCONSIN

CITY           SKY/WX    TMP DP  RH WIND       PRES   REMARKS
SUPERIOR ARPT  SUNNY     40  28  64 NE16G23   30.00S WCI  31
ASHLAND        SUNNY     45  27  49 NE18      30.00R
HAYWARD        SUNNY     52  23  32 NE22G28   29.92R
SIREN          SUNNY     60  25  26 NE8G17    29.87S
CUMBERLAND     SUNNY     59  21  23 E8G18     29.86S
RICE LAKE      PTSUNNY   62  22  21 NE13G20   29.86S
CHETEK         SUNNY     60  24  24 N7        29.85S
LADYSMITH      CLOUDY    60  23  24 E13       29.87S
EAU CLAIRE     SUNNY     60  19  20 NE10G20   29.84S
MENOMONIE      SUNNY     61  16  17 E9G21     29.84F
NEW RICHMOND   SUNNY     61  15  16 E12G20    29.85S
OSCEOLA        SUNNY     61  21  21 E15       29.87S
$$

WIZ003>005-009-010-017-018-252300-
NORTH CENTRAL WISCONSIN

CITY           SKY/WX    TMP DP  RH WIND       PRES   REMARKS
MANITOWISH WTR SUNNY     54  16  22 N10       29.88S
ARBOR VITAE    SUNNY     57  16  19 N15G22    29.86F
WOODRUFF       SUNNY     57  16  19 N15G22    29.86F
RHINELANDER    SUNNY     55  15  20 E9G17     29.87S
EAGLE RIVER    SUNNY     56   8  14 E8        29.86F
LAND O LAKES   SUNNY     55  13  19 N10       29.89S
PHILLIPS       SUNNY     57  23  27 NE8G17    29.86S
TOMAHAWK       MOSUNNY   57  15  19 E3        29.86S
MEDFORD        SUNNY     57  21  24 NE15G21   29.84S
MERRILL        CLOUDY    57  18  22 E10G17    29.85S
$$

WIZ029-030-035-036-043>047-252300-
CENTRAL WISCONSIN

CITY           SKY/WX    TMP DP  RH WIND       PRES   REMARKS
WAUSAU         CLOUDY    57  16  20 E8G17     29.84R
MOSINEE        NOT AVBL
MARSHFIELD     MOSUNNY   58  18  21 E13G21    29.84S
STEVENS POINT  PTSUNNY   52  19  27 NE13G18   29.86R
WAUPACA        MOSUNNY   55  10  16 NE10      29.88R
WAUTOMA        NOT AVBL
WISC RAPIDS    MOSUNNY   55  15  20 E10       29.86S
CAMP DOUGLAS   NOT AVBL
$$

WIZ011>013-019>022-031-037>040-048>050-252300-
NORTHEAST WISCONSIN

CITY           SKY/WX    TMP DP  RH WIND       PRES   REMARKS
ANTIGO         PTSUNNY   53  15  22 E13       29.86S
SHAWANO        CLOUDY    53  21  28 E15       29.89R
OCONTO         PTSUNNY   45  11  25 NE8       29.91R
STURGEON BAY   MOSUNNY   46  12  25 E12       29.92F
GREEN BAY      PTSUNNY   48  23  37 NE16      29.90R
MANITOWOC      NOT AVBL
APPLETON       PTSUNNY   48  10  21 NE14G21   29.88R
CLINTONVILLE   CLOUDY    52  14  22 E14       29.87S
OSHKOSH        SUNNY     51  26  37 NE18      29.86R
$$

WIZ032>034-041-042-053>061-252300-
SOUTHWEST WISCONSIN

CITY           SKY/WX    TMP DP  RH WIND       PRES   REMARKS
LA CROSSE      PTSUNNY   60  29  30 NE9       29.81F
SPARTA         PTSUNNY   57  16  20 E13G20    29.83S
VIROQUA        CLOUDY    52  30  42 E13       29.81S
BOSCOBEL       CLOUDY    54  32  43 NE10G22   29.82R
PRAIRIE DU CHI CLOUDY    52  35  51 NE8G20    29.80R
PLATTEVILLE    CLOUDY    50  38  62 NE17G24   29.78R
$$

WIZ056-057-062-063-064-067-068-252300-
SOUTH CENTRAL WISCONSIN

CITY           SKY/WX    TMP DP  RH WIND       PRES   REMARKS
REEDSBURG      CLOUDY    51  26  36 NE13      29.83R
BARABOO/DELLS  CLOUDY    52  22  31 E10G18    29.82S
LONE ROCK      NOT AVBL
MINERAL POINT  CLOUDY    50  36  57 NE18      29.78R
MADISON        CLOUDY    49  32  52 NE20      29.81S
MIDDLETON      CLOUDY    51  33  50 E16       29.81S
WATERTOWN      CLOUDY    47  32  56 NE15      29.82R
MONROE         CLOUDY    46  37  71 NE21G29   29.76R
JANESVILLE     CLOUDY    46  34  61 NE18G24   29.78R
$$

WIZ051-052-058>065-066-070>072-252300-
SOUTHEAST WISCONSIN

CITY           SKY/WX    TMP DP  RH WIND       PRES   REMARKS
MILWAUKEE      CLOUDY    40  30  67 N16G24    29.83S WCI  31
WAUKESHA       CLOUDY    43  25  49 NE15G21   29.83S
MILWAUKEE/TIMM CLOUDY    43  25  49 NE20      29.84S
RACINE         CLOUDY    40  32  73 N18       29.83R WCI  31
BURLINGTON     CLOUDY    42  30  61 NE16      29.80R
KENOSHA        CLOUDY    42  32  67 NE16      29.80R
FOND DU LAC    MOSUNNY   52  21  29 NE20      29.85R
SHEBOYGAN      SUNNY     48  22  35 NE17G28   29.85F
WEST BEND      CLOUDY    45  21  39 NE14G22   29.84R
JUNEAU         CLOUDY    49  25  40 E14       29.84R
$$

LSZ147-162-252300-
LAKE SUPERIOR

STATION/POSITION TIME  TEMP    WIND        PRES    WAVE
                       AIR SEA DIR/SP/G            HT/PER
                 (UTC) (F)     (DEG/KT/KT) (MB)    (FT/S)
W MID LAKE BUOY  2050   35 35   50/ 12/ 16 1017.8F   3/ 4
DEVILS ISLAND    2100   36      50/ 17/ 18 1017.1F
PORT WING        2140   38      30/ 17/ 20 1016.3R
SAXON HARBOR     2100   38      30/  9/ 12 1015.2S
$$

LMZ867-665-643>646-252300-
LAKE MICHIGAN

STATION/POSITION TIME  TEMP    WIND        PRES    WAVE
                       AIR SEA DIR/SP/G            HT/PER
                 (UTC) (F)     (DEG/KT/KT) (MB)    (FT/S)
CHAMBERS ISLAND  2100   42      30/ 12/ 16 1013.2F
NORTHPORT PIER   2100   44      60/ 13/ 17 1012.9F
SISTER BAY       2117   52     100/ 16/ 26   N/A
KEWAUNEE LAKESHO 2100   41      30/ 14/ 23 1011.4S
SHEBOYGAN LAKESH 2100   38      10/ 20/ 23 1012.1R
PORT WASHINGTON  2140   43      30/ 16/ 24 1011.5S
MILWAUKEE LAKESH 2100   38      20/ 19/ 24   N/A
KENOSHA   LAKESH 2100   40      30/ 21/ 24 1008.8F
$$

TC  - TEMPERATURE IN CELSIUS
VSB - VISIBILITY IN STATUTE MILES
WCI - WIND CHILL INDEX
HX  - HEAT INDEX



USA.gov is the U.S. government's official web portal to all federal, state and local government web resources and services.